This is the latest recevied weather packets stored in our database for station/object KC4KQE. If no packets are shown the sender has not sent any weather packets the latest 1 day(s).
| Time | Temp. | Humidity | Pressure | Rain* | Wind** | Luminosity | Snow |
|---|---|---|---|---|---|---|---|
| 1777969156 | 15.56° C | 79% | 1013.7 hPa | 1.02 mm | 3.13 m/s, 110° | 0 W/m² | - |
| 1777968856 | 16.11° C | 78% | 1013.9 hPa | 0.51 mm | 1.34 m/s, 110° | 0 W/m² | - |
| 1777968557 | 16.11° C | 76% | 1013.9 hPa | 0.51 mm | 1.79 m/s, 110° | 0 W/m² | - |
| 1777968256 | 16.67° C | 75% | 1013.8 hPa | 0.25 mm | 4.02 m/s, 110° | 0 W/m² | - |
| 1777967956 | 16.67° C | 72% | 1013.7 hPa | 0 mm | 2.24 m/s, 110° | 0 W/m² | - |
| 1777967656 | 17.22° C | 70% | 1013.6 hPa | 0 mm | 1.79 m/s, 110° | 0 W/m² | - |
| 1777967356 | 17.22° C | 67% | 1013.6 hPa | 0 mm | 1.34 m/s, 110° | 0 W/m² | - |
| 1777967057 | 17.78° C | 65% | 1013.5 hPa | 0 mm | 2.24 m/s, 110° | 0 W/m² | - |
| 1777966756 | 17.78° C | 63% | 1013.5 hPa | 0 mm | 1.79 m/s, 110° | 0 W/m² | - |
| 1777966456 | 18.33° C | 62% | 1013.6 hPa | 0 mm | 1.79 m/s, 110° | 0 W/m² | - |
| 1777966158 | 18.89° C | 57% | 1013.5 hPa | 0 mm | 2.24 m/s, 110° | 0 W/m² | - |
| 1777965856 | 18.89° C | 54% | 1013.5 hPa | 0 mm | 2.24 m/s, 110° | 0 W/m² | - |
| 1777965556 | 19.44° C | 52% | 1013.5 hPa | 0 mm | 2.24 m/s, 110° | 0 W/m² | - |
| 1777965256 | 19.44° C | 50% | 1013.4 hPa | 0 mm | 3.58 m/s, 110° | 0 W/m² | - |
| 1777964958 | 19.44° C | 49% | 1013.3 hPa | 0 mm | 1.34 m/s, 110° | 0 W/m² | - |
| 1777964656 | 19.44° C | 48% | 1013.3 hPa | 0 mm | 1.34 m/s, 110° | 0 W/m² | - |
| 1777964356 | 19.44° C | 47% | 1013.3 hPa | 0 mm | 4.02 m/s, 110° | 0 W/m² | - |
| 1777964056 | 20° C | 46% | 1013.1 hPa | 0 mm | 3.58 m/s, 110° | 0 W/m² | - |
| 1777963757 | 20° C | 44% | 1012.9 hPa | 0 mm | 2.24 m/s, 110° | 0 W/m² | - |
| 1777963456 | 20° C | 43% | 1012.8 hPa | 0 mm | 4.02 m/s, 110° | 0 W/m² | - |
| 1777963158 | 20° C | 42% | 1012.8 hPa | 0 mm | 3.13 m/s, 110° | 0 W/m² | - |
| 1777962856 | 20° C | 41% | 1012.8 hPa | 0 mm | 2.24 m/s, 110° | 0 W/m² | - |
| 1777962557 | 20° C | 41% | 1012.8 hPa | 0 mm | 3.58 m/s, 110° | 0 W/m² | - |
| 1777962256 | 20° C | 41% | 1012.8 hPa | 0 mm | 3.58 m/s, 110° | 0 W/m² | - |
| 1777961956 | 20° C | 41% | 1012.8 hPa | 0 mm | 2.24 m/s, 110° | 0 W/m² | - |
* Rain latest hour (hover to see other rain measurements)
** Current wind speed in m/s (hover to see current wind gust speed)